index,time,SiteAddr,SiteName,app,area,date,device_id,gps_alt,gps_fix,gps_lat,gps_lon,gps_num,name,s_d0,s_d1,s_d2,s_h0,s_t0,timestamp
0,08:25:07,高雄市溪寮國小 高雄市大寮區溪寮里溪寮路69號,高雄市市立溪寮國小(2018),AirBox,kaohsiung,2024-03-22,74DA38F20FA4,2.0,1.0,22.63,120.42,9.0,高雄市溪寮校,13.0,14.0,7.0,100.0,28.0,2024-03-22T08:25:07Z
1,08:31:16,高雄市溪寮國小 高雄市大寮區溪寮里溪寮路69號,高雄市市立溪寮國小(2018),AirBox,kaohsiung,2024-03-22,74DA38F20FA4,2.0,1.0,22.63,120.42,9.0,高雄市溪寮校,14.0,15.0,8.0,100.0,28.0,2024-03-22T08:31:16Z
2,08:37:23,高雄市溪寮國小 高雄市大寮區溪寮里溪寮路69號,高雄市市立溪寮國小(2018),AirBox,kaohsiung,2024-03-22,74DA38F20FA4,2.0,1.0,22.63,120.42,9.0,高雄市溪寮校,13.0,15.0,7.0,100.0,27.87,2024-03-22T08:37:23Z
3,08:43:31,高雄市溪寮國小 高雄市大寮區溪寮里溪寮路69號,高雄市市立溪寮國小(2018),AirBox,kaohsiung,2024-03-22,74DA38F20FA4,2.0,1.0,22.63,120.42,9.0,高雄市溪寮校,13.0,14.0,8.0,100.0,27.75,2024-03-22T08:43:31Z
4,08:49:41,高雄市溪寮國小 高雄市大寮區溪寮里溪寮路69號,高雄市市立溪寮國小(2018),AirBox,kaohsiung,2024-03-22,74DA38F20FA4,2.0,1.0,22.63,120.42,9.0,高雄市溪寮校,12.0,14.0,7.0,100.0,27.62,2024-03-22T08:49:41Z
5,08:55:48,高雄市溪寮國小 高雄市大寮區溪寮里溪寮路69號,高雄市市立溪寮國小(2018),AirBox,kaohsiung,2024-03-22,74DA38F20FA4,2.0,1.0,22.63,120.42,9.0,高雄市溪寮校,12.0,13.0,7.0,100.0,27.5,2024-03-22T08:55:48Z
6,09:01:59,高雄市溪寮國小 高雄市大寮區溪寮里溪寮路69號,高雄市市立溪寮國小(2018),AirBox,kaohsiung,2024-03-22,74DA38F20FA4,2.0,1.0,22.63,120.42,9.0,高雄市溪寮校,18.0,20.0,10.0,100.0,27.5,2024-03-22T09:01:59Z
7,09:08:08,高雄市溪寮國小 高雄市大寮區溪寮里溪寮路69號,高雄市市立溪寮國小(2018),AirBox,kaohsiung,2024-03-22,74DA38F20FA4,2.0,1.0,22.63,120.42,9.0,高雄市溪寮校,12.0,13.0,7.0,100.0,27.37,2024-03-22T09:08:08Z
8,09:14:17,高雄市溪寮國小 高雄市大寮區溪寮里溪寮路69號,高雄市市立溪寮國小(2018),AirBox,kaohsiung,2024-03-22,74DA38F20FA4,2.0,1.0,22.63,120.42,9.0,高雄市溪寮校,11.0,12.0,7.0,100.0,27.5,2024-03-22T09:14:17Z
9,09:20:24,高雄市溪寮國小 高雄市大寮區溪寮里溪寮路69號,高雄市市立溪寮國小(2018),AirBox,kaohsiung,2024-03-22,74DA38F20FA4,2.0,1.0,22.63,120.42,9.0,高雄市溪寮校,11.0,12.0,7.0,100.0,27.25,2024-03-22T09:20:24Z
10,09:26:29,高雄市溪寮國小 高雄市大寮區溪寮里溪寮路69號,高雄市市立溪寮國小(2018),AirBox,kaohsiung,2024-03-22,74DA38F20FA4,2.0,1.0,22.63,120.42,9.0,高雄市溪寮校,11.0,12.0,7.0,100.0,27.25,2024-03-22T09:26:29Z
11,09:32:36,高雄市溪寮國小 高雄市大寮區溪寮里溪寮路69號,高雄市市立溪寮國小(2018),AirBox,kaohsiung,2024-03-22,74DA38F20FA4,2.0,1.0,22.63,120.42,9.0,高雄市溪寮校,10.0,11.0,7.0,100.0,27.12,2024-03-22T09:32:36Z
12,09:38:47,高雄市溪寮國小 高雄市大寮區溪寮里溪寮路69號,高雄市市立溪寮國小(2018),AirBox,kaohsiung,2024-03-22,74DA38F20FA4,2.0,1.0,22.63,120.42,9.0,高雄市溪寮校,12.0,13.0,7.0,100.0,27.0,2024-03-22T09:38:47Z
13,09:44:53,高雄市溪寮國小 高雄市大寮區溪寮里溪寮路69號,高雄市市立溪寮國小(2018),AirBox,kaohsiung,2024-03-22,74DA38F20FA4,2.0,1.0,22.63,120.42,9.0,高雄市溪寮校,11.0,13.0,7.0,100.0,26.87,2024-03-22T09:44:53Z
14,09:50:59,高雄市溪寮國小 高雄市大寮區溪寮里溪寮路69號,高雄市市立溪寮國小(2018),AirBox,kaohsiung,2024-03-22,74DA38F20FA4,2.0,1.0,22.63,120.42,9.0,高雄市溪寮校,12.0,13.0,7.0,100.0,26.75,2024-03-22T09:50:59Z
15,09:57:07,高雄市溪寮國小 高雄市大寮區溪寮里溪寮路69號,高雄市市立溪寮國小(2018),AirBox,kaohsiung,2024-03-22,74DA38F20FA4,2.0,1.0,22.63,120.42,9.0,高雄市溪寮校,12.0,13.0,7.0,100.0,26.87,2024-03-22T09:57:07Z
16,10:03:17,高雄市溪寮國小 高雄市大寮區溪寮里溪寮路69號,高雄市市立溪寮國小(2018),AirBox,kaohsiung,2024-03-22,74DA38F20FA4,2.0,1.0,22.63,120.42,9.0,高雄市溪寮校,13.0,13.0,8.0,100.0,26.5,2024-03-22T10:03:17Z
17,10:09:27,高雄市溪寮國小 高雄市大寮區溪寮里溪寮路69號,高雄市市立溪寮國小(2018),AirBox,kaohsiung,2024-03-22,74DA38F20FA4,2.0,1.0,22.63,120.42,9.0,高雄市溪寮校,11.0,12.0,7.0,100.0,26.12,2024-03-22T10:09:27Z
18,10:15:33,高雄市溪寮國小 高雄市大寮區溪寮里溪寮路69號,高雄市市立溪寮國小(2018),AirBox,kaohsiung,2024-03-22,74DA38F20FA4,2.0,1.0,22.63,120.42,9.0,高雄市溪寮校,12.0,13.0,7.0,100.0,26.0,2024-03-22T10:15:33Z
19,10:21:41,高雄市溪寮國小 高雄市大寮區溪寮里溪寮路69號,高雄市市立溪寮國小(2018),AirBox,kaohsiung,2024-03-22,74DA38F20FA4,2.0,1.0,22.63,120.42,9.0,高雄市溪寮校,10.0,11.0,6.0,100.0,26.0,2024-03-22T10:21:41Z
20,10:27:52,高雄市溪寮國小 高雄市大寮區溪寮里溪寮路69號,高雄市市立溪寮國小(2018),AirBox,kaohsiung,2024-03-22,74DA38F20FA4,2.0,1.0,22.63,120.42,9.0,高雄市溪寮校,12.0,13.0,6.0,100.0,26.0,2024-03-22T10:27:52Z
21,10:33:58,高雄市溪寮國小 高雄市大寮區溪寮里溪寮路69號,高雄市市立溪寮國小(2018),AirBox,kaohsiung,2024-03-22,74DA38F20FA4,2.0,1.0,22.63,120.42,9.0,高雄市溪寮校,11.0,12.0,6.0,100.0,25.87,2024-03-22T10:33:58Z
22,10:40:06,高雄市溪寮國小 高雄市大寮區溪寮里溪寮路69號,高雄市市立溪寮國小(2018),AirBox,kaohsiung,2024-03-22,74DA38F20FA4,2.0,1.0,22.63,120.42,9.0,高雄市溪寮校,10.0,11.0,6.0,100.0,25.75,2024-03-22T10:40:06Z
23,10:46:11,高雄市溪寮國小 高雄市大寮區溪寮里溪寮路69號,高雄市市立溪寮國小(2018),AirBox,kaohsiung,2024-03-22,74DA38F20FA4,2.0,1.0,22.63,120.42,9.0,高雄市溪寮校,11.0,12.0,7.0,100.0,25.87,2024-03-22T10:46:11Z
24,10:52:20,高雄市溪寮國小 高雄市大寮區溪寮里溪寮路69號,高雄市市立溪寮國小(2018),AirBox,kaohsiung,2024-03-22,74DA38F20FA4,2.0,1.0,22.63,120.42,9.0,高雄市溪寮校,12.0,13.0,7.0,100.0,25.75,2024-03-22T10:52:20Z
25,10:58:32,高雄市溪寮國小 高雄市大寮區溪寮里溪寮路69號,高雄市市立溪寮國小(2018),AirBox,kaohsiung,2024-03-22,74DA38F20FA4,2.0,1.0,22.63,120.42,9.0,高雄市溪寮校,11.0,12.0,7.0,100.0,25.75,2024-03-22T10:58:32Z
26,11:04:40,高雄市溪寮國小 高雄市大寮區溪寮里溪寮路69號,高雄市市立溪寮國小(2018),AirBox,kaohsiung,2024-03-22,74DA38F20FA4,2.0,1.0,22.63,120.42,9.0,高雄市溪寮校,12.0,13.0,7.0,100.0,25.75,2024-03-22T11:04:40Z
27,11:24:23,高雄市溪寮國小 高雄市大寮區溪寮里溪寮路69號,高雄市市立溪寮國小(2018),AirBox,kaohsiung,2024-03-22,74DA38F20FA4,2.0,1.0,22.63,120.42,9.0,高雄市溪寮校,12.0,13.0,8.0,100.0,26.0,2024-03-22T11:24:23Z
28,11:30:44,高雄市溪寮國小 高雄市大寮區溪寮里溪寮路69號,高雄市市立溪寮國小(2018),AirBox,kaohsiung,2024-03-22,74DA38F20FA4,2.0,1.0,22.63,120.42,9.0,高雄市溪寮校,12.0,13.0,7.0,100.0,26.12,2024-03-22T11:30:44Z
29,11:36:52,高雄市溪寮國小 高雄市大寮區溪寮里溪寮路69號,高雄市市立溪寮國小(2018),AirBox,kaohsiung,2024-03-22,74DA38F20FA4,2.0,1.0,22.63,120.42,9.0,高雄市溪寮校,12.0,13.0,8.0,100.0,26.12,2024-03-22T11:36:52Z
30,11:49:40,高雄市溪寮國小 高雄市大寮區溪寮里溪寮路69號,高雄市市立溪寮國小(2018),AirBox,kaohsiung,2024-03-22,74DA38F20FA4,2.0,1.0,22.63,120.42,9.0,高雄市溪寮校,12.0,13.0,7.0,100.0,26.0,2024-03-22T11:49:40Z
31,11:55:50,高雄市溪寮國小 高雄市大寮區溪寮里溪寮路69號,高雄市市立溪寮國小(2018),AirBox,kaohsiung,2024-03-22,74DA38F20FA4,2.0,1.0,22.63,120.42,9.0,高雄市溪寮校,14.0,15.0,8.0,100.0,25.87,2024-03-22T11:55:50Z
32,12:01:59,高雄市溪寮國小 高雄市大寮區溪寮里溪寮路69號,高雄市市立溪寮國小(2018),AirBox,kaohsiung,2024-03-22,74DA38F20FA4,2.0,1.0,22.63,120.42,9.0,高雄市溪寮校,14.0,15.0,8.0,100.0,25.75,2024-03-22T12:01:59Z
33,12:08:08,高雄市溪寮國小 高雄市大寮區溪寮里溪寮路69號,高雄市市立溪寮國小(2018),AirBox,kaohsiung,2024-03-22,74DA38F20FA4,2.0,1.0,22.63,120.42,9.0,高雄市溪寮校,13.0,14.0,8.0,100.0,25.62,2024-03-22T12:08:08Z
34,12:14:23,高雄市溪寮國小 高雄市大寮區溪寮里溪寮路69號,高雄市市立溪寮國小(2018),AirBox,kaohsiung,2024-03-22,74DA38F20FA4,2.0,1.0,22.63,120.42,9.0,高雄市溪寮校,13.0,14.0,8.0,100.0,25.62,2024-03-22T12:14:23Z
35,12:20:32,高雄市溪寮國小 高雄市大寮區溪寮里溪寮路69號,高雄市市立溪寮國小(2018),AirBox,kaohsiung,2024-03-22,74DA38F20FA4,2.0,1.0,22.63,120.42,9.0,高雄市溪寮校,14.0,15.0,9.0,100.0,25.5,2024-03-22T12:20:32Z
36,12:26:42,高雄市溪寮國小 高雄市大寮區溪寮里溪寮路69號,高雄市市立溪寮國小(2018),AirBox,kaohsiung,2024-03-22,74DA38F20FA4,2.0,1.0,22.63,120.42,9.0,高雄市溪寮校,14.0,15.0,9.0,100.0,25.5,2024-03-22T12:26:42Z
37,12:32:56,高雄市溪寮國小 高雄市大寮區溪寮里溪寮路69號,高雄市市立溪寮國小(2018),AirBox,kaohsiung,2024-03-22,74DA38F20FA4,2.0,1.0,22.63,120.42,9.0,高雄市溪寮校,15.0,16.0,9.0,100.0,25.37,2024-03-22T12:32:56Z
38,12:39:01,高雄市溪寮國小 高雄市大寮區溪寮里溪寮路69號,高雄市市立溪寮國小(2018),AirBox,kaohsiung,2024-03-22,74DA38F20FA4,2.0,1.0,22.63,120.42,9.0,高雄市溪寮校,13.0,14.0,9.0,100.0,25.5,2024-03-22T12:39:01Z
39,12:45:08,高雄市溪寮國小 高雄市大寮區溪寮里溪寮路69號,高雄市市立溪寮國小(2018),AirBox,kaohsiung,2024-03-22,74DA38F20FA4,2.0,1.0,22.63,120.42,9.0,高雄市溪寮校,15.0,16.0,9.0,100.0,25.37,2024-03-22T12:45:08Z
40,12:51:16,高雄市溪寮國小 高雄市大寮區溪寮里溪寮路69號,高雄市市立溪寮國小(2018),AirBox,kaohsiung,2024-03-22,74DA38F20FA4,2.0,1.0,22.63,120.42,9.0,高雄市溪寮校,16.0,17.0,10.0,100.0,25.37,2024-03-22T12:51:16Z
41,12:57:27,高雄市溪寮國小 高雄市大寮區溪寮里溪寮路69號,高雄市市立溪寮國小(2018),AirBox,kaohsiung,2024-03-22,74DA38F20FA4,2.0,1.0,22.63,120.42,9.0,高雄市溪寮校,16.0,17.0,10.0,100.0,25.12,2024-03-22T12:57:27Z
42,13:03:46,高雄市溪寮國小 高雄市大寮區溪寮里溪寮路69號,高雄市市立溪寮國小(2018),AirBox,kaohsiung,2024-03-22,74DA38F20FA4,2.0,1.0,22.63,120.42,9.0,高雄市溪寮校,17.0,18.0,11.0,100.0,25.12,2024-03-22T13:03:46Z
43,13:09:57,高雄市溪寮國小 高雄市大寮區溪寮里溪寮路69號,高雄市市立溪寮國小(2018),AirBox,kaohsiung,2024-03-22,74DA38F20FA4,2.0,1.0,22.63,120.42,9.0,高雄市溪寮校,16.0,16.0,10.0,100.0,25.0,2024-03-22T13:09:57Z
44,13:16:06,高雄市溪寮國小 高雄市大寮區溪寮里溪寮路69號,高雄市市立溪寮國小(2018),AirBox,kaohsiung,2024-03-22,74DA38F20FA4,2.0,1.0,22.63,120.42,9.0,高雄市溪寮校,16.0,17.0,10.0,100.0,25.0,2024-03-22T13:16:06Z
45,13:22:35,高雄市溪寮國小 高雄市大寮區溪寮里溪寮路69號,高雄市市立溪寮國小(2018),AirBox,kaohsiung,2024-03-22,74DA38F20FA4,2.0,1.0,22.63,120.42,9.0,高雄市溪寮校,17.0,18.0,10.0,100.0,25.0,2024-03-22T13:22:35Z
46,13:28:44,高雄市溪寮國小 高雄市大寮區溪寮里溪寮路69號,高雄市市立溪寮國小(2018),AirBox,kaohsiung,2024-03-22,74DA38F20FA4,2.0,1.0,22.63,120.42,9.0,高雄市溪寮校,15.0,17.0,10.0,100.0,24.87,2024-03-22T13:28:44Z
47,13:34:53,高雄市溪寮國小 高雄市大寮區溪寮里溪寮路69號,高雄市市立溪寮國小(2018),AirBox,kaohsiung,2024-03-22,74DA38F20FA4,2.0,1.0,22.63,120.42,9.0,高雄市溪寮校,17.0,18.0,10.0,100.0,24.75,2024-03-22T13:34:53Z
48,13:41:19,高雄市溪寮國小 高雄市大寮區溪寮里溪寮路69號,高雄市市立溪寮國小(2018),AirBox,kaohsiung,2024-03-22,74DA38F20FA4,2.0,1.0,22.63,120.42,9.0,高雄市溪寮校,16.0,17.0,10.0,100.0,24.62,2024-03-22T13:41:19Z
49,13:47:26,高雄市溪寮國小 高雄市大寮區溪寮里溪寮路69號,高雄市市立溪寮國小(2018),AirBox,kaohsiung,2024-03-22,74DA38F20FA4,2.0,1.0,22.63,120.42,9.0,高雄市溪寮校,17.0,18.0,10.0,100.0,24.62,2024-03-22T13:47:26Z
50,14:00:35,高雄市溪寮國小 高雄市大寮區溪寮里溪寮路69號,高雄市市立溪寮國小(2018),AirBox,kaohsiung,2024-03-22,74DA38F20FA4,2.0,1.0,22.63,120.42,9.0,高雄市溪寮校,16.0,18.0,10.0,100.0,24.5,2024-03-22T14:00:35Z
51,14:06:44,高雄市溪寮國小 高雄市大寮區溪寮里溪寮路69號,高雄市市立溪寮國小(2018),AirBox,kaohsiung,2024-03-22,74DA38F20FA4,2.0,1.0,22.63,120.42,9.0,高雄市溪寮校,17.0,18.0,10.0,100.0,24.62,2024-03-22T14:06:44Z
52,14:12:51,高雄市溪寮國小 高雄市大寮區溪寮里溪寮路69號,高雄市市立溪寮國小(2018),AirBox,kaohsiung,2024-03-22,74DA38F20FA4,2.0,1.0,22.63,120.42,9.0,高雄市溪寮校,17.0,17.0,10.0,100.0,24.62,2024-03-22T14:12:51Z
53,14:19:19,高雄市溪寮國小 高雄市大寮區溪寮里溪寮路69號,高雄市市立溪寮國小(2018),AirBox,kaohsiung,2024-03-22,74DA38F20FA4,2.0,1.0,22.63,120.42,9.0,高雄市溪寮校,17.0,18.0,10.0,100.0,24.37,2024-03-22T14:19:19Z
54,14:25:35,高雄市溪寮國小 高雄市大寮區溪寮里溪寮路69號,高雄市市立溪寮國小(2018),AirBox,kaohsiung,2024-03-22,74DA38F20FA4,2.0,1.0,22.63,120.42,9.0,高雄市溪寮校,16.0,17.0,10.0,100.0,24.5,2024-03-22T14:25:35Z
55,14:31:48,高雄市溪寮國小 高雄市大寮區溪寮里溪寮路69號,高雄市市立溪寮國小(2018),AirBox,kaohsiung,2024-03-22,74DA38F20FA4,2.0,1.0,22.63,120.42,9.0,高雄市溪寮校,17.0,18.0,10.0,100.0,24.62,2024-03-22T14:31:48Z
56,14:44:42,高雄市溪寮國小 高雄市大寮區溪寮里溪寮路69號,高雄市市立溪寮國小(2018),AirBox,kaohsiung,2024-03-22,74DA38F20FA4,2.0,1.0,22.63,120.42,9.0,高雄市溪寮校,19.0,19.0,11.0,100.0,24.37,2024-03-22T14:44:42Z
57,14:50:52,高雄市溪寮國小 高雄市大寮區溪寮里溪寮路69號,高雄市市立溪寮國小(2018),AirBox,kaohsiung,2024-03-22,74DA38F20FA4,2.0,1.0,22.63,120.42,9.0,高雄市溪寮校,20.0,22.0,13.0,100.0,24.25,2024-03-22T14:50:52Z
58,14:57:00,高雄市溪寮國小 高雄市大寮區溪寮里溪寮路69號,高雄市市立溪寮國小(2018),AirBox,kaohsiung,2024-03-22,74DA38F20FA4,2.0,1.0,22.63,120.42,9.0,高雄市溪寮校,22.0,23.0,13.0,100.0,24.12,2024-03-22T14:57:00Z
59,15:03:12,高雄市溪寮國小 高雄市大寮區溪寮里溪寮路69號,高雄市市立溪寮國小(2018),AirBox,kaohsiung,2024-03-22,74DA38F20FA4,2.0,1.0,22.63,120.42,9.0,高雄市溪寮校,24.0,25.0,14.0,100.0,24.12,2024-03-22T15:03:12Z
60,15:09:32,高雄市溪寮國小 高雄市大寮區溪寮里溪寮路69號,高雄市市立溪寮國小(2018),AirBox,kaohsiung,2024-03-22,74DA38F20FA4,2.0,1.0,22.63,120.42,9.0,高雄市溪寮校,27.0,29.0,16.0,100.0,24.12,2024-03-22T15:09:32Z
61,15:15:46,高雄市溪寮國小 高雄市大寮區溪寮里溪寮路69號,高雄市市立溪寮國小(2018),AirBox,kaohsiung,2024-03-22,74DA38F20FA4,2.0,1.0,22.63,120.42,9.0,高雄市溪寮校,27.0,29.0,16.0,100.0,24.0,2024-03-22T15:15:46Z
62,15:21:57,高雄市溪寮國小 高雄市大寮區溪寮里溪寮路69號,高雄市市立溪寮國小(2018),AirBox,kaohsiung,2024-03-22,74DA38F20FA4,2.0,1.0,22.63,120.42,9.0,高雄市溪寮校,27.0,29.0,16.0,100.0,23.87,2024-03-22T15:21:57Z
63,15:28:18,高雄市溪寮國小 高雄市大寮區溪寮里溪寮路69號,高雄市市立溪寮國小(2018),AirBox,kaohsiung,2024-03-22,74DA38F20FA4,2.0,1.0,22.63,120.42,9.0,高雄市溪寮校,27.0,29.0,16.0,100.0,24.0,2024-03-22T15:28:18Z
64,15:34:28,高雄市溪寮國小 高雄市大寮區溪寮里溪寮路69號,高雄市市立溪寮國小(2018),AirBox,kaohsiung,2024-03-22,74DA38F20FA4,2.0,1.0,22.63,120.42,9.0,高雄市溪寮校,27.0,28.0,16.0,100.0,24.0,2024-03-22T15:34:28Z
65,15:41:00,高雄市溪寮國小 高雄市大寮區溪寮里溪寮路69號,高雄市市立溪寮國小(2018),AirBox,kaohsiung,2024-03-22,74DA38F20FA4,2.0,1.0,22.63,120.42,9.0,高雄市溪寮校,27.0,30.0,17.0,100.0,24.12,2024-03-22T15:41:00Z
66,15:47:13,高雄市溪寮國小 高雄市大寮區溪寮里溪寮路69號,高雄市市立溪寮國小(2018),AirBox,kaohsiung,2024-03-22,74DA38F20FA4,2.0,1.0,22.63,120.42,9.0,高雄市溪寮校,27.0,29.0,16.0,100.0,24.12,2024-03-22T15:47:13Z
67,15:53:28,高雄市溪寮國小 高雄市大寮區溪寮里溪寮路69號,高雄市市立溪寮國小(2018),AirBox,kaohsiung,2024-03-22,74DA38F20FA4,2.0,1.0,22.63,120.42,9.0,高雄市溪寮校,27.0,29.0,17.0,100.0,24.12,2024-03-22T15:53:28Z
68,15:59:39,高雄市溪寮國小 高雄市大寮區溪寮里溪寮路69號,高雄市市立溪寮國小(2018),AirBox,kaohsiung,2024-03-22,74DA38F20FA4,2.0,1.0,22.63,120.42,9.0,高雄市溪寮校,26.0,27.0,16.0,100.0,24.12,2024-03-22T15:59:39Z
69,16:05:53,高雄市溪寮國小 高雄市大寮區溪寮里溪寮路69號,高雄市市立溪寮國小(2018),AirBox,kaohsiung,2024-03-22,74DA38F20FA4,2.0,1.0,22.63,120.42,9.0,高雄市溪寮校,26.0,28.0,16.0,100.0,24.0,2024-03-22T16:05:53Z
70,16:12:03,高雄市溪寮國小 高雄市大寮區溪寮里溪寮路69號,高雄市市立溪寮國小(2018),AirBox,kaohsiung,2024-03-22,74DA38F20FA4,2.0,1.0,22.63,120.42,9.0,高雄市溪寮校,26.0,27.0,16.0,100.0,24.0,2024-03-22T16:12:03Z
71,16:18:18,高雄市溪寮國小 高雄市大寮區溪寮里溪寮路69號,高雄市市立溪寮國小(2018),AirBox,kaohsiung,2024-03-22,74DA38F20FA4,2.0,1.0,22.63,120.42,9.0,高雄市溪寮校,26.0,28.0,16.0,100.0,23.87,2024-03-22T16:18:18Z
72,16:24:28,高雄市溪寮國小 高雄市大寮區溪寮里溪寮路69號,高雄市市立溪寮國小(2018),AirBox,kaohsiung,2024-03-22,74DA38F20FA4,2.0,1.0,22.63,120.42,9.0,高雄市溪寮校,26.0,27.0,16.0,100.0,23.75,2024-03-22T16:24:28Z
73,16:37:24,高雄市溪寮國小 高雄市大寮區溪寮里溪寮路69號,高雄市市立溪寮國小(2018),AirBox,kaohsiung,2024-03-22,74DA38F20FA4,2.0,1.0,22.63,120.42,9.0,高雄市溪寮校,32.0,35.0,19.0,100.0,23.87,2024-03-22T16:37:24Z
74,16:43:35,高雄市溪寮國小 高雄市大寮區溪寮里溪寮路69號,高雄市市立溪寮國小(2018),AirBox,kaohsiung,2024-03-22,74DA38F20FA4,2.0,1.0,22.63,120.42,9.0,高雄市溪寮校,32.0,36.0,20.0,100.0,23.87,2024-03-22T16:43:35Z
75,16:49:50,高雄市溪寮國小 高雄市大寮區溪寮里溪寮路69號,高雄市市立溪寮國小(2018),AirBox,kaohsiung,2024-03-22,74DA38F20FA4,2.0,1.0,22.63,120.42,9.0,高雄市溪寮校,35.0,41.0,21.0,100.0,23.87,2024-03-22T16:49:50Z
76,16:56:16,高雄市溪寮國小 高雄市大寮區溪寮里溪寮路69號,高雄市市立溪寮國小(2018),AirBox,kaohsiung,2024-03-22,74DA38F20FA4,2.0,1.0,22.63,120.42,9.0,高雄市溪寮校,35.0,42.0,22.0,100.0,23.87,2024-03-22T16:56:16Z
77,17:02:29,高雄市溪寮國小 高雄市大寮區溪寮里溪寮路69號,高雄市市立溪寮國小(2018),AirBox,kaohsiung,2024-03-22,74DA38F20FA4,2.0,1.0,22.63,120.42,9.0,高雄市溪寮校,34.0,39.0,21.0,100.0,24.0,2024-03-22T17:02:29Z
78,17:08:43,高雄市溪寮國小 高雄市大寮區溪寮里溪寮路69號,高雄市市立溪寮國小(2018),AirBox,kaohsiung,2024-03-22,74DA38F20FA4,2.0,1.0,22.63,120.42,9.0,高雄市溪寮校,31.0,35.0,19.0,100.0,24.12,2024-03-22T17:08:43Z
79,17:14:55,高雄市溪寮國小 高雄市大寮區溪寮里溪寮路69號,高雄市市立溪寮國小(2018),AirBox,kaohsiung,2024-03-22,74DA38F20FA4,2.0,1.0,22.63,120.42,9.0,高雄市溪寮校,31.0,34.0,19.0,100.0,24.25,2024-03-22T17:14:55Z
80,17:21:17,高雄市溪寮國小 高雄市大寮區溪寮里溪寮路69號,高雄市市立溪寮國小(2018),AirBox,kaohsiung,2024-03-22,74DA38F20FA4,2.0,1.0,22.63,120.42,9.0,高雄市溪寮校,29.0,31.0,17.0,100.0,24.37,2024-03-22T17:21:17Z
81,17:27:34,高雄市溪寮國小 高雄市大寮區溪寮里溪寮路69號,高雄市市立溪寮國小(2018),AirBox,kaohsiung,2024-03-22,74DA38F20FA4,2.0,1.0,22.63,120.42,9.0,高雄市溪寮校,28.0,31.0,17.0,100.0,24.37,2024-03-22T17:27:34Z
82,17:33:44,高雄市溪寮國小 高雄市大寮區溪寮里溪寮路69號,高雄市市立溪寮國小(2018),AirBox,kaohsiung,2024-03-22,74DA38F20FA4,2.0,1.0,22.63,120.42,9.0,高雄市溪寮校,27.0,29.0,17.0,100.0,24.25,2024-03-22T17:33:44Z
83,17:39:54,高雄市溪寮國小 高雄市大寮區溪寮里溪寮路69號,高雄市市立溪寮國小(2018),AirBox,kaohsiung,2024-03-22,74DA38F20FA4,2.0,1.0,22.63,120.42,9.0,高雄市溪寮校,27.0,29.0,16.0,100.0,24.12,2024-03-22T17:39:54Z
84,17:46:07,高雄市溪寮國小 高雄市大寮區溪寮里溪寮路69號,高雄市市立溪寮國小(2018),AirBox,kaohsiung,2024-03-22,74DA38F20FA4,2.0,1.0,22.63,120.42,9.0,高雄市溪寮校,29.0,31.0,18.0,100.0,24.12,2024-03-22T17:46:07Z
85,17:52:19,高雄市溪寮國小 高雄市大寮區溪寮里溪寮路69號,高雄市市立溪寮國小(2018),AirBox,kaohsiung,2024-03-22,74DA38F20FA4,2.0,1.0,22.63,120.42,9.0,高雄市溪寮校,28.0,30.0,17.0,100.0,24.12,2024-03-22T17:52:19Z
86,17:58:34,高雄市溪寮國小 高雄市大寮區溪寮里溪寮路69號,高雄市市立溪寮國小(2018),AirBox,kaohsiung,2024-03-22,74DA38F20FA4,2.0,1.0,22.63,120.42,9.0,高雄市溪寮校,29.0,32.0,17.0,100.0,24.12,2024-03-22T17:58:34Z
87,18:04:46,高雄市溪寮國小 高雄市大寮區溪寮里溪寮路69號,高雄市市立溪寮國小(2018),AirBox,kaohsiung,2024-03-22,74DA38F20FA4,2.0,1.0,22.63,120.42,9.0,高雄市溪寮校,29.0,32.0,18.0,100.0,24.0,2024-03-22T18:04:46Z
88,18:11:02,高雄市溪寮國小 高雄市大寮區溪寮里溪寮路69號,高雄市市立溪寮國小(2018),AirBox,kaohsiung,2024-03-22,74DA38F20FA4,2.0,1.0,22.63,120.42,9.0,高雄市溪寮校,30.0,33.0,18.0,100.0,24.0,2024-03-22T18:11:02Z
89,18:17:12,高雄市溪寮國小 高雄市大寮區溪寮里溪寮路69號,高雄市市立溪寮國小(2018),AirBox,kaohsiung,2024-03-22,74DA38F20FA4,2.0,1.0,22.63,120.42,9.0,高雄市溪寮校,32.0,36.0,19.0,100.0,23.87,2024-03-22T18:17:12Z
90,18:23:37,高雄市溪寮國小 高雄市大寮區溪寮里溪寮路69號,高雄市市立溪寮國小(2018),AirBox,kaohsiung,2024-03-22,74DA38F20FA4,2.0,1.0,22.63,120.42,9.0,高雄市溪寮校,30.0,32.0,18.0,100.0,23.75,2024-03-22T18:23:37Z
91,18:29:49,高雄市溪寮國小 高雄市大寮區溪寮里溪寮路69號,高雄市市立溪寮國小(2018),AirBox,kaohsiung,2024-03-22,74DA38F20FA4,2.0,1.0,22.63,120.42,9.0,高雄市溪寮校,29.0,32.0,18.0,100.0,23.75,2024-03-22T18:29:49Z
92,18:35:59,高雄市溪寮國小 高雄市大寮區溪寮里溪寮路69號,高雄市市立溪寮國小(2018),AirBox,kaohsiung,2024-03-22,74DA38F20FA4,2.0,1.0,22.63,120.42,9.0,高雄市溪寮校,29.0,31.0,18.0,100.0,23.62,2024-03-22T18:35:59Z
93,18:42:13,高雄市溪寮國小 高雄市大寮區溪寮里溪寮路69號,高雄市市立溪寮國小(2018),AirBox,kaohsiung,2024-03-22,74DA38F20FA4,2.0,1.0,22.63,120.42,9.0,高雄市溪寮校,30.0,33.0,18.0,100.0,23.62,2024-03-22T18:42:13Z
94,18:48:24,高雄市溪寮國小 高雄市大寮區溪寮里溪寮路69號,高雄市市立溪寮國小(2018),AirBox,kaohsiung,2024-03-22,74DA38F20FA4,2.0,1.0,22.63,120.42,9.0,高雄市溪寮校,29.0,31.0,18.0,100.0,23.5,2024-03-22T18:48:24Z
95,18:54:34,高雄市溪寮國小 高雄市大寮區溪寮里溪寮路69號,高雄市市立溪寮國小(2018),AirBox,kaohsiung,2024-03-22,74DA38F20FA4,2.0,1.0,22.63,120.42,9.0,高雄市溪寮校,29.0,32.0,18.0,100.0,23.5,2024-03-22T18:54:34Z
96,19:00:47,高雄市溪寮國小 高雄市大寮區溪寮里溪寮路69號,高雄市市立溪寮國小(2018),AirBox,kaohsiung,2024-03-22,74DA38F20FA4,2.0,1.0,22.63,120.42,9.0,高雄市溪寮校,31.0,33.0,18.0,100.0,23.37,2024-03-22T19:00:47Z
97,19:06:59,高雄市溪寮國小 高雄市大寮區溪寮里溪寮路69號,高雄市市立溪寮國小(2018),AirBox,kaohsiung,2024-03-22,74DA38F20FA4,2.0,1.0,22.63,120.42,9.0,高雄市溪寮校,30.0,33.0,18.0,100.0,23.37,2024-03-22T19:06:59Z
98,19:13:10,高雄市溪寮國小 高雄市大寮區溪寮里溪寮路69號,高雄市市立溪寮國小(2018),AirBox,kaohsiung,2024-03-22,74DA38F20FA4,2.0,1.0,22.63,120.42,9.0,高雄市溪寮校,29.0,31.0,17.0,100.0,23.25,2024-03-22T19:13:10Z
99,19:19:20,高雄市溪寮國小 高雄市大寮區溪寮里溪寮路69號,高雄市市立溪寮國小(2018),AirBox,kaohsiung,2024-03-22,74DA38F20FA4,2.0,1.0,22.63,120.42,9.0,高雄市溪寮校,27.0,29.0,16.0,100.0,23.12,2024-03-22T19:19:20Z
100,19:25:31,高雄市溪寮國小 高雄市大寮區溪寮里溪寮路69號,高雄市市立溪寮國小(2018),AirBox,kaohsiung,2024-03-22,74DA38F20FA4,2.0,1.0,22.63,120.42,9.0,高雄市溪寮校,27.0,28.0,16.0,100.0,23.0,2024-03-22T19:25:31Z
101,19:31:42,高雄市溪寮國小 高雄市大寮區溪寮里溪寮路69號,高雄市市立溪寮國小(2018),AirBox,kaohsiung,2024-03-22,74DA38F20FA4,2.0,1.0,22.63,120.42,9.0,高雄市溪寮校,28.0,29.0,17.0,100.0,23.12,2024-03-22T19:31:42Z
102,19:37:51,高雄市溪寮國小 高雄市大寮區溪寮里溪寮路69號,高雄市市立溪寮國小(2018),AirBox,kaohsiung,2024-03-22,74DA38F20FA4,2.0,1.0,22.63,120.42,9.0,高雄市溪寮校,26.0,28.0,16.0,100.0,23.0,2024-03-22T19:37:51Z
103,19:44:02,高雄市溪寮國小 高雄市大寮區溪寮里溪寮路69號,高雄市市立溪寮國小(2018),AirBox,kaohsiung,2024-03-22,74DA38F20FA4,2.0,1.0,22.63,120.42,9.0,高雄市溪寮校,27.0,29.0,16.0,100.0,23.0,2024-03-22T19:44:02Z
104,19:50:12,高雄市溪寮國小 高雄市大寮區溪寮里溪寮路69號,高雄市市立溪寮國小(2018),AirBox,kaohsiung,2024-03-22,74DA38F20FA4,2.0,1.0,22.63,120.42,9.0,高雄市溪寮校,28.0,30.0,17.0,100.0,23.0,2024-03-22T19:50:12Z
105,19:56:26,高雄市溪寮國小 高雄市大寮區溪寮里溪寮路69號,高雄市市立溪寮國小(2018),AirBox,kaohsiung,2024-03-22,74DA38F20FA4,2.0,1.0,22.63,120.42,9.0,高雄市溪寮校,28.0,30.0,16.0,100.0,23.0,2024-03-22T19:56:26Z
106,20:02:38,高雄市溪寮國小 高雄市大寮區溪寮里溪寮路69號,高雄市市立溪寮國小(2018),AirBox,kaohsiung,2024-03-22,74DA38F20FA4,2.0,1.0,22.63,120.42,9.0,高雄市溪寮校,28.0,30.0,17.0,100.0,23.0,2024-03-22T20:02:38Z
107,20:08:46,高雄市溪寮國小 高雄市大寮區溪寮里溪寮路69號,高雄市市立溪寮國小(2018),AirBox,kaohsiung,2024-03-22,74DA38F20FA4,2.0,1.0,22.63,120.42,9.0,高雄市溪寮校,27.0,28.0,17.0,100.0,22.87,2024-03-22T20:08:46Z
108,20:14:57,高雄市溪寮國小 高雄市大寮區溪寮里溪寮路69號,高雄市市立溪寮國小(2018),AirBox,kaohsiung,2024-03-22,74DA38F20FA4,2.0,1.0,22.63,120.42,9.0,高雄市溪寮校,28.0,30.0,17.0,100.0,22.75,2024-03-22T20:14:57Z
109,20:21:07,高雄市溪寮國小 高雄市大寮區溪寮里溪寮路69號,高雄市市立溪寮國小(2018),AirBox,kaohsiung,2024-03-22,74DA38F20FA4,2.0,1.0,22.63,120.42,9.0,高雄市溪寮校,29.0,31.0,17.0,100.0,22.75,2024-03-22T20:21:07Z
110,20:27:20,高雄市溪寮國小 高雄市大寮區溪寮里溪寮路69號,高雄市市立溪寮國小(2018),AirBox,kaohsiung,2024-03-22,74DA38F20FA4,2.0,1.0,22.63,120.42,9.0,高雄市溪寮校,28.0,29.0,17.0,100.0,22.75,2024-03-22T20:27:20Z
111,20:33:31,高雄市溪寮國小 高雄市大寮區溪寮里溪寮路69號,高雄市市立溪寮國小(2018),AirBox,kaohsiung,2024-03-22,74DA38F20FA4,2.0,1.0,22.63,120.42,9.0,高雄市溪寮校,28.0,30.0,17.0,100.0,22.62,2024-03-22T20:33:31Z
112,20:39:43,高雄市溪寮國小 高雄市大寮區溪寮里溪寮路69號,高雄市市立溪寮國小(2018),AirBox,kaohsiung,2024-03-22,74DA38F20FA4,2.0,1.0,22.63,120.42,9.0,高雄市溪寮校,27.0,28.0,17.0,100.0,22.62,2024-03-22T20:39:43Z
113,20:45:53,高雄市溪寮國小 高雄市大寮區溪寮里溪寮路69號,高雄市市立溪寮國小(2018),AirBox,kaohsiung,2024-03-22,74DA38F20FA4,2.0,1.0,22.63,120.42,9.0,高雄市溪寮校,27.0,29.0,16.0,100.0,22.62,2024-03-22T20:45:53Z
114,20:52:05,高雄市溪寮國小 高雄市大寮區溪寮里溪寮路69號,高雄市市立溪寮國小(2018),AirBox,kaohsiung,2024-03-22,74DA38F20FA4,2.0,1.0,22.63,120.42,9.0,高雄市溪寮校,27.0,29.0,16.0,100.0,22.5,2024-03-22T20:52:05Z
115,20:58:15,高雄市溪寮國小 高雄市大寮區溪寮里溪寮路69號,高雄市市立溪寮國小(2018),AirBox,kaohsiung,2024-03-22,74DA38F20FA4,2.0,1.0,22.63,120.42,9.0,高雄市溪寮校,25.0,26.0,16.0,100.0,22.5,2024-03-22T20:58:15Z
116,21:04:37,高雄市溪寮國小 高雄市大寮區溪寮里溪寮路69號,高雄市市立溪寮國小(2018),AirBox,kaohsiung,2024-03-22,74DA38F20FA4,2.0,1.0,22.63,120.42,9.0,高雄市溪寮校,28.0,29.0,16.0,100.0,22.5,2024-03-22T21:04:37Z
117,21:10:49,高雄市溪寮國小 高雄市大寮區溪寮里溪寮路69號,高雄市市立溪寮國小(2018),AirBox,kaohsiung,2024-03-22,74DA38F20FA4,2.0,1.0,22.63,120.42,9.0,高雄市溪寮校,27.0,29.0,16.0,100.0,22.37,2024-03-22T21:10:49Z
118,21:17:02,高雄市溪寮國小 高雄市大寮區溪寮里溪寮路69號,高雄市市立溪寮國小(2018),AirBox,kaohsiung,2024-03-22,74DA38F20FA4,2.0,1.0,22.63,120.42,9.0,高雄市溪寮校,27.0,29.0,16.0,100.0,22.25,2024-03-22T21:17:02Z
119,21:29:52,高雄市溪寮國小 高雄市大寮區溪寮里溪寮路69號,高雄市市立溪寮國小(2018),AirBox,kaohsiung,2024-03-22,74DA38F20FA4,2.0,1.0,22.63,120.42,9.0,高雄市溪寮校,27.0,29.0,17.0,100.0,22.12,2024-03-22T21:29:52Z
120,21:42:46,高雄市溪寮國小 高雄市大寮區溪寮里溪寮路69號,高雄市市立溪寮國小(2018),AirBox,kaohsiung,2024-03-22,74DA38F20FA4,2.0,1.0,22.63,120.42,9.0,高雄市溪寮校,29.0,31.0,17.0,100.0,22.25,2024-03-22T21:42:46Z
121,21:48:57,高雄市溪寮國小 高雄市大寮區溪寮里溪寮路69號,高雄市市立溪寮國小(2018),AirBox,kaohsiung,2024-03-22,74DA38F20FA4,2.0,1.0,22.63,120.42,9.0,高雄市溪寮校,29.0,32.0,17.0,100.0,22.25,2024-03-22T21:48:57Z
122,21:55:06,高雄市溪寮國小 高雄市大寮區溪寮里溪寮路69號,高雄市市立溪寮國小(2018),AirBox,kaohsiung,2024-03-22,74DA38F20FA4,2.0,1.0,22.63,120.42,9.0,高雄市溪寮校,27.0,29.0,17.0,100.0,22.25,2024-03-22T21:55:06Z
123,22:01:16,高雄市溪寮國小 高雄市大寮區溪寮里溪寮路69號,高雄市市立溪寮國小(2018),AirBox,kaohsiung,2024-03-22,74DA38F20FA4,2.0,1.0,22.63,120.42,9.0,高雄市溪寮校,28.0,30.0,17.0,100.0,22.12,2024-03-22T22:01:16Z
124,22:07:25,高雄市溪寮國小 高雄市大寮區溪寮里溪寮路69號,高雄市市立溪寮國小(2018),AirBox,kaohsiung,2024-03-22,74DA38F20FA4,2.0,1.0,22.63,120.42,9.0,高雄市溪寮校,27.0,28.0,16.0,100.0,22.12,2024-03-22T22:07:25Z
125,22:13:38,高雄市溪寮國小 高雄市大寮區溪寮里溪寮路69號,高雄市市立溪寮國小(2018),AirBox,kaohsiung,2024-03-22,74DA38F20FA4,2.0,1.0,22.63,120.42,9.0,高雄市溪寮校,29.0,30.0,17.0,100.0,22.12,2024-03-22T22:13:38Z
126,22:19:48,高雄市溪寮國小 高雄市大寮區溪寮里溪寮路69號,高雄市市立溪寮國小(2018),AirBox,kaohsiung,2024-03-22,74DA38F20FA4,2.0,1.0,22.63,120.42,9.0,高雄市溪寮校,28.0,29.0,16.0,100.0,22.12,2024-03-22T22:19:48Z
127,22:26:00,高雄市溪寮國小 高雄市大寮區溪寮里溪寮路69號,高雄市市立溪寮國小(2018),AirBox,kaohsiung,2024-03-22,74DA38F20FA4,2.0,1.0,22.63,120.42,9.0,高雄市溪寮校,29.0,32.0,17.0,100.0,22.12,2024-03-22T22:26:00Z
128,22:32:10,高雄市溪寮國小 高雄市大寮區溪寮里溪寮路69號,高雄市市立溪寮國小(2018),AirBox,kaohsiung,2024-03-22,74DA38F20FA4,2.0,1.0,22.63,120.42,9.0,高雄市溪寮校,29.0,31.0,18.0,100.0,22.37,2024-03-22T22:32:10Z
129,22:38:20,高雄市溪寮國小 高雄市大寮區溪寮里溪寮路69號,高雄市市立溪寮國小(2018),AirBox,kaohsiung,2024-03-22,74DA38F20FA4,2.0,1.0,22.63,120.42,9.0,高雄市溪寮校,28.0,30.0,17.0,100.0,22.37,2024-03-22T22:38:20Z
130,22:44:29,高雄市溪寮國小 高雄市大寮區溪寮里溪寮路69號,高雄市市立溪寮國小(2018),AirBox,kaohsiung,2024-03-22,74DA38F20FA4,2.0,1.0,22.63,120.42,9.0,高雄市溪寮校,30.0,33.0,19.0,100.0,22.5,2024-03-22T22:44:29Z
131,22:50:43,高雄市溪寮國小 高雄市大寮區溪寮里溪寮路69號,高雄市市立溪寮國小(2018),AirBox,kaohsiung,2024-03-22,74DA38F20FA4,2.0,1.0,22.63,120.42,9.0,高雄市溪寮校,30.0,33.0,18.0,100.0,22.5,2024-03-22T22:50:43Z
132,22:56:53,高雄市溪寮國小 高雄市大寮區溪寮里溪寮路69號,高雄市市立溪寮國小(2018),AirBox,kaohsiung,2024-03-22,74DA38F20FA4,2.0,1.0,22.63,120.42,9.0,高雄市溪寮校,31.0,34.0,19.0,100.0,22.5,2024-03-22T22:56:53Z
133,23:03:06,高雄市溪寮國小 高雄市大寮區溪寮里溪寮路69號,高雄市市立溪寮國小(2018),AirBox,kaohsiung,2024-03-22,74DA38F20FA4,2.0,1.0,22.63,120.42,9.0,高雄市溪寮校,30.0,33.0,19.0,100.0,22.62,2024-03-22T23:03:06Z
134,23:09:16,高雄市溪寮國小 高雄市大寮區溪寮里溪寮路69號,高雄市市立溪寮國小(2018),AirBox,kaohsiung,2024-03-22,74DA38F20FA4,2.0,1.0,22.63,120.42,9.0,高雄市溪寮校,30.0,33.0,19.0,100.0,22.75,2024-03-22T23:09:16Z
135,23:15:27,高雄市溪寮國小 高雄市大寮區溪寮里溪寮路69號,高雄市市立溪寮國小(2018),AirBox,kaohsiung,2024-03-22,74DA38F20FA4,2.0,1.0,22.63,120.42,9.0,高雄市溪寮校,30.0,33.0,18.0,100.0,22.87,2024-03-22T23:15:27Z
136,23:21:39,高雄市溪寮國小 高雄市大寮區溪寮里溪寮路69號,高雄市市立溪寮國小(2018),AirBox,kaohsiung,2024-03-22,74DA38F20FA4,2.0,1.0,22.63,120.42,9.0,高雄市溪寮校,31.0,34.0,19.0,100.0,23.12,2024-03-22T23:21:39Z
137,23:27:51,高雄市溪寮國小 高雄市大寮區溪寮里溪寮路69號,高雄市市立溪寮國小(2018),AirBox,kaohsiung,2024-03-22,74DA38F20FA4,2.0,1.0,22.63,120.42,9.0,高雄市溪寮校,31.0,35.0,19.0,100.0,23.5,2024-03-22T23:27:51Z